| time (UTC) | temp F | wind direction | speed MPH | gust MPH | rain 1hr in | rain 24hr in | rain mn in | humidity % | barometer mb |
| 20260904024117 | 72 | 180 | 1.0 | 2.0 | 0.00 | 0.00 | 0.00 | 50 | 995.2 |
| 20260904023621 | 72 | 158 | 1.0 | 3.0 | 0.00 | 0.00 | 0.00 | 50 | 995.2 |
| 20260904023117 | 72 | 180 | 2.0 | 3.0 | 0.00 | 0.00 | 0.00 | 50 | 995.1 |
| 20260904022639 | 72 | 203 | 1.0 | 3.0 | 0.00 | 0.00 | 0.00 | 50 | 995.1 |
| 20260904022137 | 72 | 203 | 1.0 | 2.0 | 0.00 | 0.00 | 0.00 | 50 | 995.1 |
| 20260904021618 | 72 | 180 | 3.0 | 5.0 | 0.00 | 0.00 | 0.00 | 50 | 995.1 |
| 20260904021119 | 72 | 203 | 2.0 | 8.0 | 0.00 | 0.00 | 0.00 | 50 | 995.0 |
| 20260904020619 | 72 | 180 | 3.0 | 5.0 | 0.00 | 0.00 | 0.00 | 50 | 995.0 |
| 20260904020140 | 72 | 180 | 2.0 | 4.0 | 0.00 | 0.00 | 0.00 | 50 | 995.1 |
| 20260904015619 | 72 | 180 | 2.0 | 3.0 | 0.00 | 0.00 | 0.00 | 50 | 995.0 |
| 20260904015158 | 72 | 203 | 3.0 | 5.0 | 0.00 | 0.00 | 0.00 | 50 | 994.8 |
| 20260904014619 | 72 | 203 | 2.0 | 4.0 | 0.00 | 0.00 | 0.00 | 50 | 994.8 |
| 20260904014117 | 72 | 203 | 4.0 | 6.0 | 0.00 | 0.00 | 0.00 | 50 | 994.7 |
| 20260904013617 | 72 | 203 | 3.0 | 5.0 | 0.00 | 0.00 | 0.00 | 50 | 994.8 |
| 20260904013119 | 72 | 180 | 4.0 | 6.0 | 0.00 | 0.00 | 0.00 | 50 | 994.8 |
| 20260904012617 | 72 | 0 | 3.0 | 8.0 | 0.00 | 0.00 | 0.00 | 50 | 994.7 |
| 20260904012116 | 72 | 180 | 3.0 | 6.0 | 0.00 | 0.00 | 0.00 | 50 | 994.7 |
| 20260904011641 | 72 | 180 | 5.0 | 10.0 | 0.00 | 0.00 | 0.00 | 50 | 994.7 |
| 20260904011138 | 72 | 180 | 3.0 | 6.0 | 0.00 | 0.00 | 0.00 | 50 | 994.7 |
| 20260904010640 | 72 | 180 | 5.0 | 9.0 | 0.00 | 0.00 | 0.00 | 50 | 994.6 |
| 20260904010118 | 72 | 0 | 3.0 | 4.0 | 0.00 | 0.00 | 0.00 | 50 | 994.7 |
| 20260904005617 | 72 | 158 | 7.0 | 13.0 | 0.00 | 0.00 | 0.00 | 50 | 994.5 |
| 20260904005120 | 72 | 180 | 7.0 | 14.0 | 0.00 | 0.00 | 0.00 | 49 | 994.6 |
| 20260904004620 | 72 | 180 | 4.0 | 7.0 | 0.00 | 0.00 | 0.00 | 49 | 994.8 |
| 20260904004119 | 72 | 180 | 4.0 | 9.0 | 0.00 | 0.00 | 0.00 | 49 | 994.8 |
| 20260904003619 | 72 | 180 | 4.0 | 8.0 | 0.00 | 0.00 | 0.00 | 49 | 994.8 |
| 20260904003119 | 73 | 180 | 3.0 | 5.0 | 0.00 | 0.00 | 0.00 | 49 | 994.8 |
| 20260904002616 | 73 | 180 | 8.0 | 11.0 | 0.00 | 0.00 | 0.00 | 49 | 995.0 |
| 20260904002119 | 73 | 180 | 3.0 | 8.0 | 0.00 | 0.00 | 0.00 | 48 | 995.2 |
| 20260904001617 | 73 | 180 | 5.0 | 8.0 | 0.00 | 0.00 | 0.00 | 48 | 995.2 |
| 20260904001120 | 74 | 180 | 7.0 | 12.0 | 0.00 | 0.00 | 0.00 | 48 | 995.3 |
| 20260904000618 | 74 | 113 | 6.0 | 9.0 | 0.00 | 0.00 | 0.00 | 48 | 995.1 |
| 20260904000118 | 74 | 158 | 7.0 | 10.0 | 0.00 | 0.00 | 0.00 | 49 | 995.2 |
| 20260903235620 | 74 | 113 | 10.0 | 12.0 | 0.00 | 0.00 | 0.00 | 49 | 995.2 |
| 20260903235117 | 74 | 113 | 5.0 | 10.0 | 0.00 | 0.00 | 0.00 | 49 | 995.2 |
| 20260903234616 | 74 | 113 | 9.0 | 14.0 | 0.00 | 0.00 | 0.00 | 49 | 995.3 |
| 20260903234119 | 74 | 113 | 10.0 | 13.0 | 0.00 | 0.00 | 0.00 | 51 | 995.6 |
| 20260903233616 | 74 | 90 | 12.0 | 15.0 | 0.00 | 0.00 | 0.00 | 53 | 995.4 |
| 20260903233118 | 74 | 90 | 14.0 | 18.0 | 0.00 | 0.00 | 0.00 | 53 | 995.2 |
| 20260903232618 | 74 | 90 | 14.0 | 16.0 | 0.00 | 0.00 | 0.00 | 54 | 995.3 |
| 20260903232117 | 74 | 90 | 13.0 | 16.0 | 0.00 | 0.00 | 0.00 | 55 | 995.8 |
| 20260903231619 | 74 | 113 | 7.0 | 12.0 | 0.00 | 0.00 | 0.00 | 55 | 996.0 |
| 20260903231119 | 73 | 90 | 10.0 | 12.0 | 0.00 | 0.00 | 0.00 | 55 | 996.1 |
| 20260903230619 | 73 | 90 | 10.0 | 12.0 | 0.00 | 0.00 | 0.00 | 56 | 996.3 |
| 20260903230119 | 72 | 0 | 6.0 | 8.0 | 0.00 | 0.00 | 0.00 | 56 | 996.5 |
| 20260903225619 | 72 | 0 | 7.0 | 8.0 | 0.00 | 0.00 | 0.00 | 56 | 996.7 |
| 20260903225118 | 73 | 0 | 6.0 | 10.0 | 0.00 | 0.00 | 0.00 | 55 | 996.6 |
| 20260903224619 | 73 | 0 | 5.0 | 6.0 | 0.00 | 0.00 | 0.00 | 56 | 996.9 |
| 20260903224139 | 73 | 0 | 7.0 | 9.0 | 0.00 | 0.00 | 0.00 | 55 | 997.0 |
| 20260903223617 | 73 | 0.0 | 1.0 | 0.00 | 0.00 | 0.00 | 55 | 997.0 | |
| 20260903223136 | 74 | 0 | 11.0 | 15.0 | 0.00 | 0.00 | 0.00 | 56 | 996.6 |
| 20260903222618 | 73 | 0 | 13.0 | 15.0 | 0.00 | 0.00 | 0.00 | 55 | 996.0 |
| 20260903222119 | 73 | 0 | 19.0 | 23.0 | 0.00 | 0.00 | 0.00 | 55 | 995.5 |
| 20260903221620 | 73 | 0 | 18.0 | 22.0 | 0.00 | 0.00 | 0.00 | 54 | 995.2 |
| 20260903221119 | 73 | 0 | 16.0 | 22.0 | 0.00 | 0.00 | 0.00 | 52 | 995.5 |
| 20260903220639 | 73 | 0 | 13.0 | 20.0 | 0.00 | 0.00 | 0.00 | 50 | 996.1 |
| 20260903220119 | 73 | 0 | 9.0 | 15.0 | 0.00 | 0.00 | 0.00 | 49 | 996.1 |
| 20260903215638 | 74 | 0 | 18.0 | 23.0 | 0.00 | 0.00 | 0.00 | 49 | 996.8 |
| 20260903215119 | 74 | 0 | 26.0 | 33.0 | 0.00 | 0.00 | 0.00 | 49 | 996.5 |
| 20260903214616 | 75 | 0 | 32.0 | 38.0 | 0.00 | 0.00 | 0.00 | 50 | 995.9 |
| 20260903214116 | 75 | 0 | 28.0 | 37.0 | 0.00 | 0.00 | 0.00 | 49 | 996.1 |
| 20260903213737 | 76 | 0 | 36.0 | 44.0 | 0.00 | 0.00 | 0.00 | 49 | 995.6 |
| 20260903213118 | 80 | 0 | 36.0 | 45.0 | 0.00 | 0.00 | 0.00 | 48 | 995.9 |
| 20260903212621 | 81 | 0 | 4.0 | 5.0 | 0.00 | 0.00 | 0.00 | 48 | 994.6 |
| 20260903212122 | 81 | 0 | 1.0 | 2.0 | 0.00 | 0.00 | 0.00 | 48 | 994.4 |
| 20260903211620 | 81 | 0 | 4.0 | 5.0 | 0.00 | 0.00 | 0.00 | 48 | 994.8 |
| 20260903211122 | 81 | 0 | 3.0 | 4.0 | 0.00 | 0.00 | 0.00 | 48 | 994.9 |
| 20260903210620 | 81 | 0 | 2.0 | 3.0 | 0.00 | 0.00 | 0.00 | 49 | 994.5 |
| 20260903210118 | 81 | 0 | 5.0 | 6.0 | 0.00 | 0.00 | 0.00 | 49 | 994.1 |
| 20260903205618 | 81 | 0 | 8.0 | 9.0 | 0.00 | 0.00 | 0.00 | 49 | 993.5 |
| 20260903205118 | 81 | 0 | 5.0 | 8.0 | 0.00 | 0.00 | 0.00 | 49 | 993.2 |
| 20260903204619 | 81 | 0 | 6.0 | 6.0 | 0.00 | 0.00 | 0.00 | 49 | 993.6 |
| 20260903204139 | 82 | 0 | 6.0 | 9.0 | 0.00 | 0.00 | 0.00 | 49 | 993.0 |
| 20260903203619 | 82 | 0 | 4.0 | 5.0 | 0.00 | 0.00 | 0.00 | 50 | 993.1 |
| 20260903203118 | 82 | 0 | 5.0 | 6.0 | 0.00 | 0.00 | 0.00 | 50 | 992.9 |
| 20260903202618 | 83 | 0 | 5.0 | 7.0 | 0.00 | 0.00 | 0.00 | 51 | 992.7 |
| 20260903202119 | 83 | 0 | 4.0 | 5.0 | 0.00 | 0.00 | 0.00 | 50 | 992.7 |
| 20260903201619 | 84 | 0 | 3.0 | 4.0 | 0.00 | 0.00 | 0.00 | 50 | 992.8 |
| 20260903201118 | 84 | 0 | 4.0 | 5.0 | 0.00 | 0.00 | 0.00 | 49 | 992.8 |
| 20260903200618 | 84 | 0 | 4.0 | 4.0 | 0.00 | 0.00 | 0.00 | 49 | 992.6 |
| 20260903200118 | 85 | 0 | 3.0 | 4.0 | 0.00 | 0.00 | 0.00 | 48 | 992.7 |
| 20260903195621 | 85 | 0 | 3.0 | 4.0 | 0.00 | 0.00 | 0.00 | 49 | 992.8 |
| 20260903195121 | 84 | 0 | 3.0 | 4.0 | 0.00 | 0.00 | 0.00 | 49 | 993.0 |
| 20260903194618 | 84 | 0 | 3.0 | 4.0 | 0.00 | 0.00 | 0.00 | 49 | 993.1 |
| 20260903194120 | 84 | 0 | 2.0 | 3.0 | 0.00 | 0.00 | 0.00 | 50 | 993.2 |
| 20260903193619 | 84 | 0 | 2.0 | 3.0 | 0.00 | 0.00 | 0.00 | 51 | 993.2 |
| 20260903193159 | 83 | 0 | 3.0 | 4.0 | 0.00 | 0.00 | 0.00 | 51 | 993.3 |
| 20260903192618 | 83 | 0 | 5.0 | 7.0 | 0.00 | 0.00 | 0.00 | 52 | 993.7 |
| 20260903192121 | 83 | 0 | 5.0 | 7.0 | 0.00 | 0.00 | 0.00 | 52 | 993.9 |
| 20260903191620 | 83 | 0 | 3.0 | 4.0 | 0.00 | 0.00 | 0.00 | 53 | 993.9 |
| 20260903191121 | 83 | 0 | 2.0 | 3.0 | 0.00 | 0.00 | 0.00 | 53 | 994.2 |
| 20260903190659 | 83 | 0 | 3.0 | 4.0 | 0.00 | 0.00 | 0.00 | 53 | 994.1 |
| 20260903190118 | 83 | 0 | 4.0 | 5.0 | 0.00 | 0.00 | 0.00 | 53 | 994.4 |
| 20260903185621 | 83 | 0 | 5.0 | 7.0 | 0.00 | 0.00 | 0.00 | 54 | 994.5 |
| 20260903185141 | 84 | 0 | 6.0 | 8.0 | 0.00 | 0.00 | 0.00 | 54 | 994.4 |
| 20260903184701 | 84 | 0 | 4.0 | 5.0 | 0.00 | 0.00 | 0.00 | 55 | 994.5 |
| 20260903184119 | 84 | 0 | 7.0 | 8.0 | 0.00 | 0.00 | 0.00 | 55 | 994.4 |
| 20260903183641 | 84 | 0 | 6.0 | 8.0 | 0.00 | 0.00 | 0.00 | 54 | 994.4 |
| 20260903183118 | 85 | 0 | 4.0 | 5.0 | 0.00 | 0.00 | 0.00 | 54 | 994.4 |
| 20260903182621 | 85 | 0 | 3.0 | 4.0 | 0.00 | 0.00 | 0.00 | 54 | 994.3 |
| 20260903182141 | 85 | 0 | 4.0 | 5.0 | 0.00 | 0.00 | 0.00 | 55 | 994.5 |
| 20260903181618 | 85 | 0 | 5.0 | 6.0 | 0.00 | 0.00 | 0.00 | 55 | 994.3 |
| 20260903181122 | 86 | 0 | 5.0 | 6.0 | 0.00 | 0.00 | 0.00 | 55 | 994.3 |
| 20260903180618 | 86 | 0 | 5.0 | 6.0 | 0.00 | 0.00 | 0.00 | 55 | 994.3 |
| 20260903180141 | 86 | 0 | 3.0 | 4.0 | 0.00 | 0.00 | 0.00 | 55 | 994.3 |
| 20260903175621 | 87 | 0 | 5.0 | 6.0 | 0.00 | 0.00 | 0.00 | 55 | 994.3 |
| 20260903175118 | 87 | 0 | 9.0 | 10.0 | 0.00 | 0.00 | 0.00 | 54 | 994.4 |
| 20260903174620 | 88 | 0 | 3.0 | 4.0 | 0.00 | 0.00 | 0.00 | 54 | 994.5 |
| 20260903174121 | 88 | 23 | 3.0 | 4.0 | 0.00 | 0.00 | 0.00 | 53 | 994.6 |
| 20260903173641 | 88 | 23 | 2.0 | 3.0 | 0.00 | 0.00 | 0.00 | 53 | 994.6 |
| 20260903173120 | 89 | 23 | 2.0 | 3.0 | 0.00 | 0.00 | 0.00 | 53 | 994.6 |
| 20260903172621 | 89 | 45 | 1.0 | 2.0 | 0.00 | 0.00 | 0.00 | 53 | 994.7 |
| 20260903172119 | 88 | 23 | 1.0 | 2.0 | 0.00 | 0.00 | 0.00 | 52 | 994.8 |
| 20260903171620 | 88 | 23 | 2.0 | 3.0 | 0.00 | 0.00 | 0.00 | 54 | 994.9 |
| 20260903171118 | 88 | 23 | 3.0 | 3.0 | 0.00 | 0.00 | 0.00 | 53 | 995.0 |
| 20260903170620 | 88 | 23 | 3.0 | 3.0 | 0.00 | 0.00 | 0.00 | 53 | 995.0 |
| 20260903170118 | 87 | 23 | 3.0 | 4.0 | 0.00 | 0.00 | 0.00 | 52 | 995.2 |
| 20260903165620 | 88 | 315 | 2.0 | 3.0 | 0.00 | 0.00 | 0.00 | 52 | 995.2 |
| 20260903165118 | 88 | 270 | 2.0 | 2.0 | 0.00 | 0.00 | 0.00 | 51 | 995.2 |
| 20260903164620 | 88 | 0 | 1.0 | 2.0 | 0.00 | 0.00 | 0.00 | 51 | 995.2 |
| 20260903164122 | 88 | 0 | 1.0 | 2.0 | 0.00 | 0.00 | 0.00 | 52 | 995.3 |
| 20260903163619 | 88 | 0 | 2.0 | 2.0 | 0.00 | 0.00 | 0.00 | 51 | 995.4 |
| 20260903163120 | 89 | 0 | 3.0 | 3.0 | 0.00 | 0.00 | 0.00 | 50 | 995.4 |
| 20260903162620 | 90 | 248 | 1.0 | 2.0 | 0.00 | 0.00 | 0.00 | 50 | 995.5 |
| 20260903162121 | 91 | 225 | 2.0 | 3.0 | 0.00 | 0.00 | 0.00 | 48 | 995.6 |
| 20260903161640 | 91 | 225 | 1.0 | 2.0 | 0.00 | 0.00 | 0.00 | 48 | 995.6 |
| 20260903161118 | 91 | 225 | 1.0 | 2.0 | 0.00 | 0.00 | 0.00 | 48 | 995.7 |
| 20260903160639 | 91 | 225 | 1.0 | 2.0 | 0.00 | 0.00 | 0.00 | 49 | 995.7 |
| 20260903160118 | 91 | 225 | 1.0 | 2.0 | 0.00 | 0.00 | 0.00 | 48 | 995.7 |
| 20260903155701 | 91 | 225 | 1.0 | 2.0 | 0.00 | 0.00 | 0.00 | 48 | 995.6 |
| 20260903155121 | 91 | 225 | 1.0 | 2.0 | 0.00 | 0.00 | 0.00 | 49 | 995.6 |
| 20260903154620 | 90 | 225 | 3.0 | 4.0 | 0.00 | 0.00 | 0.00 | 50 | 995.5 |
| 20260903154201 | 90 | 225 | 3.0 | 4.0 | 0.00 | 0.00 | 0.00 | 49 | 995.4 |
| 20260903153620 | 90 | 225 | 2.0 | 3.0 | 0.00 | 0.00 | 0.00 | 49 | 995.3 |
| 20260903153120 | 90 | 0.0 | 0.0 | 0.00 | 0.00 | 0.00 | 49 | 995.4 | |
| 20260903152620 | 90 | 0.0 | 0.0 | 0.00 | 0.00 | 0.00 | 49 | 995.3 | |
| 20260903152118 | 90 | 0.0 | 0.0 | 0.00 | 0.00 | 0.00 | 48 | 995.5 | |
| 20260903151620 | 89 | 0.0 | 0.0 | 0.00 | 0.00 | 0.00 | 49 | 995.5 | |
| 20260903151117 | 89 | 0.0 | 0.0 | 0.00 | 0.00 | 0.00 | 49 | 995.4 | |
| 20260903150618 | 89 | 0.0 | 0.0 | 0.00 | 0.00 | 0.00 | 49 | 995.5 | |
| 20260903150120 | 88 | 0.0 | 0.0 | 0.00 | 0.00 | 0.00 | 50 | 995.5 | |
| 20260903145620 | 88 | 0.0 | 0.0 | 0.00 | 0.00 | 0.00 | 49 | 995.4 | |
| 20260903145118 | 88 | 0.0 | 0.0 | 0.00 | 0.00 | 0.00 | 50 | 995.5 | |
| 20260903144618 | 88 | 0.0 | 0.0 | 0.00 | 0.00 | 0.00 | 50 | 995.5 | |
| 20260903144117 | 88 | 0.0 | 0.0 | 0.00 | 0.00 | 0.00 | 49 | 995.5 | |
| 20260903143638 | 87 | 0.0 | 0.0 | 0.00 | 0.00 | 0.00 | 49 | 995.5 | |
| 20260903143119 | 87 | 0.0 | 0.0 | 0.00 | 0.00 | 0.00 | 49 | 995.5 | |
| 20260903142617 | 86 | 0.0 | 0.0 | 0.00 | 0.00 | 0.00 | 49 | 995.5 | |
| 20260903142118 | 86 | 248 | 1.0 | 1.0 | 0.00 | 0.00 | 0.00 | 49 | 995.6 |
| 20260903141617 | 86 | 248 | 1.0 | 2.0 | 0.00 | 0.00 | 0.00 | 49 | 995.6 |
| 20260903141138 | 85 | 248 | 2.0 | 3.0 | 0.00 | 0.00 | 0.00 | 49 | 995.6 |
| 20260903140638 | 85 | 248 | 2.0 | 3.0 | 0.00 | 0.00 | 0.00 | 50 | 995.7 |
| 20260903140119 | 85 | 248 | 2.0 | 4.0 | 0.00 | 0.00 | 0.00 | 49 | 995.8 |
| 20260903135619 | 85 | 248 | 2.0 | 4.0 | 0.00 | 0.00 | 0.00 | 49 | 995.7 |
| 20260903135117 | 85 | 225 | 2.0 | 3.0 | 0.00 | 0.00 | 0.00 | 48 | 995.8 |
| 20260903134620 | 85 | 225 | 2.0 | 3.0 | 0.00 | 0.00 | 0.00 | 48 | 995.7 |
| 20260903134120 | 85 | 225 | 2.0 | 3.0 | 0.00 | 0.00 | 0.00 | 48 | 995.5 |
| 20260903133637 | 85 | 225 | 2.0 | 3.0 | 0.00 | 0.00 | 0.00 | 48 | 995.7 |
| 20260903133141 | 84 | 225 | 1.0 | 2.0 | 0.00 | 0.00 | 0.00 | 48 | 995.6 |
| 20260903132620 | 84 | 225 | 2.0 | 3.0 | 0.00 | 0.00 | 0.00 | 47 | 995.6 |
| 20260903132118 | 84 | 225 | 1.0 | 2.0 | 0.00 | 0.00 | 0.00 | 46 | 995.6 |
| 20260903131620 | 83 | 225 | 1.0 | 2.0 | 0.00 | 0.00 | 0.00 | 46 | 995.7 |
| 20260903131120 | 83 | 0.0 | 0.0 | 0.00 | 0.00 | 0.00 | 45 | 995.8 | |
| 20260903130619 | 82 | 0.0 | 0.0 | 0.00 | 0.00 | 0.00 | 45 | 995.9 | |
| 20260903130119 | 81 | 0.0 | 0.0 | 0.00 | 0.00 | 0.00 | 44 | 995.9 | |
| 20260903125620 | 80 | 225 | 3.0 | 4.0 | 0.00 | 0.00 | 0.00 | 45 | 995.8 |
| 20260903125120 | 80 | 248 | 3.0 | 4.0 | 0.00 | 0.00 | 0.00 | 46 | 995.8 |
| 20260903124657 | 79 | 225 | 3.0 | 5.0 | 0.00 | 0.00 | 0.00 | 46 | 995.9 |
| 20260903124120 | 79 | 0 | 5.0 | 6.0 | 0.00 | 0.00 | 0.00 | 47 | 995.9 |
| 20260903123619 | 79 | 225 | 3.0 | 4.0 | 0.00 | 0.00 | 0.00 | 47 | 996.0 |
| 20260903123117 | 78 | 0 | 5.0 | 6.0 | 0.00 | 0.00 | 0.00 | 47 | 996.0 |
| 20260903122617 | 78 | 0 | 5.0 | 6.0 | 0.00 | 0.00 | 0.00 | 48 | 996.0 |
| 20260903122117 | 78 | 0 | 4.0 | 5.0 | 0.00 | 0.00 | 0.00 | 48 | 996.0 |
| 20260903121619 | 78 | 0.0 | 0.0 | 0.00 | 0.00 | 0.00 | 48 | 996.0 | |
| 20260903121118 | 78 | 0.0 | 1.0 | 0.00 | 0.00 | 0.00 | 48 | 995.9 | |
| 20260903120637 | 78 | 180 | 1.0 | 2.0 | 0.00 | 0.00 | 0.00 | 48 | 995.9 |
| 20260903120138 | 77 | 0.0 | 1.0 | 0.00 | 0.00 | 0.00 | 48 | 995.9 | |
| 20260903115638 | 77 | 0.0 | 2.0 | 0.00 | 0.00 | 0.00 | 48 | 995.9 | |
| 20260903115118 | 77 | 0 | 1.0 | 2.0 | 0.00 | 0.00 | 0.00 | 48 | 995.9 |
| 20260903114637 | 77 | 180 | 2.0 | 4.0 | 0.00 | 0.00 | 0.00 | 48 | 995.9 |
| 20260903114117 | 77 | 180 | 1.0 | 4.0 | 0.00 | 0.00 | 0.00 | 49 | 995.8 |
| 20260903113617 | 77 | 158 | 2.0 | 3.0 | 0.00 | 0.00 | 0.00 | 49 | 995.8 |
| 20260903113138 | 77 | 0.0 | 1.0 | 0.00 | 0.00 | 0.00 | 49 | 995.8 | |
| 20260903112617 | 77 | 0.0 | 0.0 | 0.00 | 0.00 | 0.00 | 49 | 995.7 | |
| 20260903112118 | 77 | 0.0 | 0.0 | 0.00 | 0.00 | 0.00 | 49 | 995.7 | |
| 20260903111637 | 77 | 0.0 | 1.0 | 0.00 | 0.00 | 0.00 | 49 | 995.7 | |
| 20260903111117 | 77 | 0.0 | 0.0 | 0.00 | 0.00 | 0.00 | 49 | 995.7 | |
| 20260903110618 | 77 | 0.0 | 0.0 | 0.00 | 0.00 | 0.00 | 49 | 995.7 | |
| 20260903110118 | 77 | 158 | 1.0 | 2.0 | 0.00 | 0.00 | 0.00 | 49 | 995.7 |
| 20260903105639 | 77 | 158 | 1.0 | 3.0 | 0.00 | 0.00 | 0.00 | 49 | 995.6 |
| 20260903105117 | 77 | 0.0 | 0.0 | 0.00 | 0.00 | 0.00 | 49 | 995.5 | |
| 20260903104617 | 77 | 0.0 | 0.0 | 0.00 | 0.00 | 0.00 | 49 | 995.6 | |
| 20260903104117 | 77 | 135 | 2.0 | 4.0 | 0.00 | 0.00 | 0.00 | 49 | 995.6 |
| 20260903103617 | 78 | 0 | 7.0 | 8.0 | 0.00 | 0.00 | 0.00 | 49 | 995.7 |
| 20260903103118 | 77 | 68 | 3.0 | 5.0 | 0.00 | 0.00 | 0.00 | 49 | 995.7 |
| 20260903102617 | 77 | 0.0 | 0.0 | 0.00 | 0.00 | 0.00 | 49 | 995.5 | |
| 20260903102119 | 77 | 0.0 | 0.0 | 0.00 | 0.00 | 0.00 | 49 | 995.3 | |
| 20260903101620 | 77 | 0.0 | 0.0 | 0.00 | 0.00 | 0.00 | 49 | 995.2 | |
| 20260903101138 | 77 | 0.0 | 0.0 | 0.00 | 0.00 | 0.00 | 49 | 995.2 | |
| 20260903100619 | 77 | 0.0 | 0.0 | 0.00 | 0.00 | 0.00 | 50 | 995.2 | |
| 20260903100119 | 77 | 0.0 | 0.0 | 0.00 | 0.00 | 0.00 | 50 | 995.1 | |
| 20260903095619 | 77 | 0.0 | 0.0 | 0.00 | 0.00 | 0.00 | 50 | 995.1 | |
| 20260903095140 | 77 | 0.0 | 0.0 | 0.00 | 0.00 | 0.00 | 50 | 995.1 | |
| 20260903094620 | 77 | 0.0 | 0.0 | 0.00 | 0.00 | 0.00 | 50 | 995.1 | |
| 20260903094140 | 77 | 0.0 | 0.0 | 0.00 | 0.00 | 0.00 | 50 | 995.0 | |
| 20260903093637 | 77 | 0.0 | 0.0 | 0.00 | 0.00 | 0.00 | 51 | 995.0 | |
| 20260903093120 | 77 | 0.0 | 0.0 | 0.00 | 0.00 | 0.00 | 51 | 995.0 | |
| 20260903092640 | 77 | 0.0 | 0.0 | 0.00 | 0.00 | 0.00 | 51 | 994.9 | |
| 20260903092120 | 77 | 0.0 | 0.0 | 0.00 | 0.00 | 0.00 | 51 | 994.9 | |
| 20260903091640 | 77 | 0.0 | 0.0 | 0.00 | 0.00 | 0.00 | 51 | 994.9 | |
| 20260903091201 | 77 | 0.0 | 1.0 | 0.00 | 0.00 | 0.00 | 52 | 994.9 | |
| 20260903090618 | 77 | 0.0 | 1.0 | 0.00 | 0.00 | 0.00 | 52 | 995.0 | |
| 20260903090117 | 77 | 0 | 1.0 | 2.0 | 0.00 | 0.00 | 0.00 | 53 | 994.9 |
| 20260903085619 | 77 | 0 | 1.0 | 2.0 | 0.00 | 0.00 | 0.00 | 53 | 994.9 |
| 20260903085119 | 77 | 0 | 2.0 | 3.0 | 0.00 | 0.00 | 0.00 | 53 | 994.9 |
| 20260903084620 | 77 | 0 | 3.0 | 4.0 | 0.00 | 0.00 | 0.00 | 53 | 994.7 |
| 20260903084119 | 77 | 0 | 3.0 | 4.0 | 0.00 | 0.00 | 0.00 | 53 | 994.7 |
| 20260903083618 | 77 | 0 | 4.0 | 5.0 | 0.00 | 0.00 | 0.00 | 53 | 994.7 |
| 20260903083137 | 77 | 0 | 3.0 | 5.0 | 0.00 | 0.00 | 0.00 | 53 | 994.6 |
| 20260903082620 | 77 | 0 | 3.0 | 5.0 | 0.00 | 0.00 | 0.00 | 53 | 994.6 |
| 20260903082117 | 77 | 0 | 3.0 | 4.0 | 0.00 | 0.00 | 0.00 | 54 | 994.6 |
| 20260903081617 | 76 | 0 | 3.0 | 4.0 | 0.00 | 0.00 | 0.00 | 54 | 994.6 |
| 20260903081117 | 76 | 0 | 2.0 | 3.0 | 0.00 | 0.00 | 0.00 | 55 | 994.7 |
| 20260903080640 | 76 | 0 | 2.0 | 4.0 | 0.00 | 0.00 | 0.00 | 55 | 994.7 |
| 20260903080117 | 76 | 0.0 | 0.0 | 0.00 | 0.00 | 0.00 | 55 | 994.8 | |
| 20260903075617 | 76 | 0 | 2.0 | 4.0 | 0.00 | 0.00 | 0.00 | 55 | 994.7 |
| 20260903075121 | 76 | 0 | 1.0 | 2.0 | 0.00 | 0.00 | 0.00 | 55 | 994.8 |
| 20260903074619 | 76 | 0 | 2.0 | 5.0 | 0.00 | 0.00 | 0.00 | 55 | 994.9 |
| 20260903074140 | 76 | 0 | 2.0 | 3.0 | 0.00 | 0.00 | 0.00 | 56 | 995.0 |
| 20260903073621 | 76 | 0 | 2.0 | 3.0 | 0.00 | 0.00 | 0.00 | 56 | 995.1 |
| 20260903073117 | 76 | 0 | 1.0 | 2.0 | 0.00 | 0.00 | 0.00 | 56 | 995.1 |
| 20260903072619 | 76 | 0 | 2.0 | 3.0 | 0.00 | 0.00 | 0.00 | 55 | 995.1 |
| 20260903072120 | 76 | 0 | 2.0 | 3.0 | 0.00 | 0.00 | 0.00 | 55 | 995.1 |
| 20260903071619 | 77 | 0 | 3.0 | 5.0 | 0.00 | 0.00 | 0.00 | 55 | 995.0 |
| 20260903071120 | 77 | 0 | 1.0 | 3.0 | 0.00 | 0.00 | 0.00 | 55 | 994.9 |
| 20260903070619 | 77 | 0 | 3.0 | 5.0 | 0.00 | 0.00 | 0.00 | 55 | 994.8 |
| 20260903070116 | 77 | 0 | 1.0 | 2.0 | 0.00 | 0.00 | 0.00 | 55 | 994.8 |
| 20260903065619 | 77 | 0 | 1.0 | 3.0 | 0.00 | 0.00 | 0.00 | 55 | 994.8 |
| 20260903065118 | 77 | 0.0 | 0.0 | 0.00 | 0.00 | 0.00 | 55 | 994.8 | |
| 20260903064619 | 77 | 0.0 | 0.0 | 0.00 | 0.00 | 0.00 | 55 | 994.9 | |
| 20260903064116 | 77 | 0.0 | 0.0 | 0.00 | 0.00 | 0.00 | 55 | 995.1 | |
| 20260903063616 | 77 | 0.0 | 0.0 | 0.00 | 0.00 | 0.00 | 55 | 995.2 | |
| 20260903063118 | 77 | 0.0 | 0.0 | 0.00 | 0.00 | 0.00 | 55 | 995.3 | |
| 20260903062620 | 77 | 0.0 | 0.0 | 0.00 | 0.00 | 0.00 | 55 | 995.3 | |
| 20260903062116 | 77 | 0 | 1.0 | 2.0 | 0.00 | 0.00 | 0.00 | 55 | 995.3 |
| 20260903061616 | 77 | 0 | 3.0 | 4.0 | 0.00 | 0.00 | 0.00 | 55 | 995.5 |
| 20260903061117 | 77 | 0 | 3.0 | 5.0 | 0.00 | 0.00 | 0.00 | 54 | 995.5 |
| 20260903060620 | 77 | 0 | 3.0 | 5.0 | 0.00 | 0.00 | 0.00 | 54 | 995.5 |
| 20260903060119 | 77 | 0 | 4.0 | 5.0 | 0.00 | 0.00 | 0.00 | 54 | 995.6 |
| 20260903055619 | 77 | 0 | 6.0 | 9.0 | 0.00 | 0.00 | 0.00 | 55 | 995.7 |
| 20260903055117 | 78 | 0 | 5.0 | 8.0 | 0.00 | 0.00 | 0.00 | 54 | 995.7 |
| 20260903054617 | 78 | 0 | 6.0 | 10.0 | 0.00 | 0.00 | 0.00 | 54 | 995.8 |
| 20260903054116 | 78 | 0 | 7.0 | 11.0 | 0.00 | 0.00 | 0.00 | 54 | 995.7 |
| 20260903053616 | 79 | 0 | 10.0 | 13.0 | 0.00 | 0.00 | 0.00 | 54 | 995.8 |
| 20260903053117 | 80 | 0 | 13.0 | 22.0 | 0.00 | 0.00 | 0.00 | 53 | 995.7 |
| 20260903052657 | 81 | 0 | 5.0 | 11.0 | 0.00 | 0.00 | 0.00 | 56 | 995.4 |
| 20260903052116 | 81 | 0 | 12.0 | 14.0 | 0.00 | 0.00 | 0.00 | 56 | 995.6 |
| 20260903051617 | 82 | 293 | 1.0 | 4.0 | 0.00 | 0.00 | 0.00 | 56 | 994.8 |
| 20260903051116 | 82 | 0 | 3.0 | 4.0 | 0.00 | 0.00 | 0.00 | 55 | 994.6 |
| 20260903050616 | 82 | 225 | 2.0 | 4.0 | 0.00 | 0.00 | 0.00 | 56 | 994.5 |
| 20260903050117 | 82 | 225 | 2.0 | 3.0 | 0.00 | 0.00 | 0.00 | 55 | 994.4 |
| 20260903045636 | 82 | 0 | 4.0 | 5.0 | 0.00 | 0.00 | 0.00 | 55 | 994.3 |
| 20260903045116 | 82 | 0 | 5.0 | 6.0 | 0.00 | 0.00 | 0.00 | 55 | 994.3 |
| 20260903044617 | 82 | 225 | 4.0 | 6.0 | 0.00 | 0.00 | 0.00 | 55 | 994.3 |
| 20260903044138 | 82 | 248 | 5.0 | 7.0 | 0.00 | 0.00 | 0.00 | 55 | 994.3 |
| 20260903043619 | 82 | 225 | 5.0 | 6.0 | 0.00 | 0.00 | 0.00 | 55 | 994.2 |
| 20260903043119 | 82 | 225 | 4.0 | 5.0 | 0.00 | 0.00 | 0.00 | 55 | 994.2 |
| 20260903042616 | 83 | 0 | 5.0 | 6.0 | 0.00 | 0.00 | 0.00 | 55 | 994.1 |
| 20260903042137 | 83 | 225 | 4.0 | 4.0 | 0.00 | 0.00 | 0.00 | 55 | 994.1 |
| 20260903041619 | 83 | 225 | 4.0 | 5.0 | 0.00 | 0.00 | 0.00 | 55 | 994.0 |
| 20260903041121 | 83 | 0 | 3.0 | 4.0 | 0.00 | 0.00 | 0.00 | 55 | 994.0 |
| 20260903040621 | 83 | 225 | 3.0 | 3.0 | 0.00 | 0.00 | 0.00 | 55 | 993.9 |
| 20260903040118 | 83 | 0.0 | 0.0 | 0.00 | 0.00 | 0.00 | 55 | 993.9 | |
| 20260903035619 | 83 | 225 | 1.0 | 3.0 | 0.00 | 0.00 | 0.00 | 55 | 993.9 |
| 20260903035117 | 82 | 225 | 2.0 | 4.0 | 0.00 | 0.00 | 0.00 | 55 | 993.8 |
| 20260903034618 | 82 | 225 | 5.0 | 8.0 | 0.00 | 0.00 | 0.00 | 55 | 993.7 |
| 20260903034119 | 82 | 225 | 6.0 | 8.0 | 0.00 | 0.00 | 0.00 | 55 | 993.7 |
| 20260903033618 | 82 | 225 | 8.0 | 12.0 | 0.00 | 0.00 | 0.00 | 55 | 993.6 |
| 20260903033120 | 82 | 225 | 12.0 | 14.0 | 0.00 | 0.00 | 0.00 | 55 | 993.4 |
| 20260903032616 | 82 | 225 | 12.0 | 15.0 | 0.00 | 0.00 | 0.00 | 55 | 993.1 |
| 20260903032119 | 82 | 225 | 12.0 | 15.0 | 0.00 | 0.00 | 0.00 | 55 | 993.1 |
| 20260903031619 | 82 | 0 | 10.0 | 12.0 | 0.00 | 0.00 | 0.00 | 55 | 993.1 |
| 20260903031120 | 82 | 0 | 11.0 | 14.0 | 0.00 | 0.00 | 0.00 | 55 | 993.0 |
| 20260903030619 | 82 | 0 | 11.0 | 15.0 | 0.00 | 0.00 | 0.00 | 55 | 993.1 |
| 20260903030119 | 83 | 0 | 11.0 | 13.0 | 0.00 | 0.00 | 0.00 | 55 | 993.2 |
| 20260903025636 | 83 | 0 | 12.0 | 14.0 | 0.00 | 0.00 | 0.00 | 55 | 993.4 |
| 20260903024620 | 83 | 0 | 11.0 | 14.0 | 0.00 | 0.00 | 0.00 | 55 | 993.6 |